#timestamp,LO_Frequency,Hit 
1501495215.6,286046994.9,N
1501495235.5,286046993.3,N
1501495255.3,286046995.9,N
1501495275.1,286046997.5,N
1501495295.9,286046998.7,N
1501495315.7,286047001.5,N
1501495335.5,286046998.6,N
1501495355.4,286047000.4,N
1501495375.2,286046998.1,N
1501495395.0,286046998.9,N
1501495395.9,286046998.9,N
1501495415.8,286046998.2,N
1501495435.6,286046999.7,N
1501495455.4,286047000.4,N
1501495475.2,286046999.2,N
1501495495.1,286046995.5,N
1501495496.0,286046995.5,N
1501495515.8,286046991.0,N
1501495535.6,286046984.9,N
1501495555.5,286046978.5,N
1501495575.3,286046976.9,N
1501495595.1,286046972.0,N
1501495615.9,286046965.0,N
1501495635.7,286046964.4,N
1501495655.5,286046962.7,N
1501495675.4,286046966.6,N
1501495695.2,286046971.0,N
1501495715.0,286046976.4,N
1501495715.9,286046976.4,N
1501495735.8,286046978.9,N
1501495755.6,286046980.9,N
1501495775.4,286046984.5,N
1501495795.3,286046985.9,N
1501495815.1,286046988.8,N
1501495816.0,286046988.8,N
1501495835.8,286046992.1,N
1501495855.6,286046987.0,N
1501495875.5,286046987.3,N
1501495895.3,286046987.0,N
1501495915.1,286046985.1,N
1501495935.9,286046982.6,N
1501495955.7,286046984.3,N
1501495975.5,286046984.6,N
1501495995.4,286046984.2,N
1501496015.2,286046988.2,N
1501496035.0,286046985.3,N
1501496035.9,286046985.3,N
1501496055.8,286046983.9,N
1501496075.6,286046988.4,N
1501496095.4,286046988.3,N
1501496115.3,286046990.6,N
1501496135.1,286046992.0,N
1501496136.0,286046992.0,N
1501496155.8,286046993.8,N
1501496175.7,286046987.0,N
1501496195.5,286046988.6,N
1501496215.3,286046986.4,N
1501496235.1,286046980.8,N
1501496255.9,286046982.0,N
1501496275.1,286046981.9,N
1501496276.0,286046981.9,N
1501496295.8,286046981.7,N
1501496315.6,286046976.1,N
1501496335.5,286046978.3,N
1501496355.3,286046978.2,N
1501496375.1,286046972.1,N
1501496395.9,286046968.1,N
1501496415.7,286046965.0,N
1501496435.5,286046964.9,N
1501496455.4,286046970.1,N
1501496475.2,286046968.3,N
1501496495.0,286046969.9,N
1501496495.9,286046969.9,N
1501496515.8,286046971.8,N
1501496535.6,286046969.7,N
1501496555.4,286046969.5,N
1501496575.3,286046973.5,N
1501496595.1,286046971.0,N
1501496596.0,286046971.0,N
1501496615.8,286046974.5,N
1501496635.7,286046978.2,N
1501496655.5,286046980.4,N
1501496675.3,286046979.8,N
1501496695.1,286046980.2,N
1501496715.9,286046974.2,N
1501496735.7,286046969.5,N
1501496755.5,286046965.6,N
1501496775.4,286046963.2,N
1501496795.2,286046963.0,N
1501496815.0,286046965.0,N
1501496815.9,286046965.0,N
1501496835.8,286046966.9,N
1501496855.6,286046968.3,N
1501496875.4,286046967.8,N
1501496895.3,286046966.8,N
1501496915.1,286046964.9,N
1501496916.0,286046964.9,N
1501496935.8,286046967.3,N
1501496955.7,286046962.9,N
1501496975.5,286046962.3,N
1501496995.3,286046961.2,N
1501497015.2,286046960.4,N
1501497035.9,286046956.7,N
1501497055.7,286046961.7,N
1501497075.6,286046961.5,N
1501497095.4,286046959.9,N
1501497115.2,286046960.6,N
1501497135.2,286046954.9,N
1501497155.1,286046951.7,N
1501497156.0,286046951.7,N
1501497175.8,286046945.5,N
1501497195.6,286046941.4,N
1501497215.5,286046940.3,N
1501497235.3,286046938.3,N
1501497255.1,286046935.3,N
1501497275.8,286046929.5,N
1501497295.7,286046930.0,N
1501497315.5,286046929.4,N
1501497335.3,286046928.6,N
1501497355.2,286046931.2,N
1501497375.9,286046931.7,N
1501497395.7,286046934.9,N
1501497415.6,286046934.2,N
1501497435.4,286046937.2,N
1501497455.2,286046941.3,N
1501497475.1,286046944.4,N
1501497476.0,286046944.4,N
1501497495.8,286046945.5,N
1501497515.6,286046949.2,N
1501497535.5,286046953.5,N
1501497555.3,286046958.8,N
1501497575.1,286046958.6,N
1501497595.8,286046961.4,N
1501497615.7,286046963.8,N
1501497635.5,286046967.0,N
1501497655.3,286046969.2,N
1501497675.2,286046969.9,N
1501497695.9,286046968.3,N
1501497715.7,286046967.2,N
1501497735.6,286046968.6,N
1501497755.4,286046968.9,N
1501497775.2,286046963.5,N
1501497795.1,286046965.9,N
1501497796.0,286046965.9,N
1501497815.8,286046960.7,N
1501497835.6,286046961.0,N
1501497855.5,286046960.0,N
1501497875.3,286046959.6,N
1501497895.1,286046956.8,N
1501497915.8,286046954.5,N
1501497935.7,286046954.3,N
1501497955.5,286046953.2,N
1501497975.3,286046949.9,N
1501497995.2,286046944.6,N
1501498015.0,286046943.1,N
1501498015.9,286046943.1,N
1501498035.7,286046939.8,N
1501498055.6,286046937.5,N
1501498075.4,286046932.6,N
1501498095.2,286046931.8,N
1501498115.1,286046930.2,N
1501498116.0,286046930.2,N
1501498135.8,286046926.4,N
1501498155.6,286046923.7,N
1501498175.5,286046921.7,N
1501498195.3,286046922.1,N
1501498215.1,286046923.5,N
1501498235.9,286046924.6,N
1501498255.7,286046928.7,N
1501498275.5,286046930.0,N
1501498295.4,286046935.3,N
1501498315.2,286046932.4,N
1501498335.0,286046926.4,N
1501498335.9,286046926.4,N
1501498355.8,286046924.3,N
1501498375.6,286046921.3,N
1501498395.4,286046922.0,N
1501498415.3,286046923.5,N
1501498435.1,286046926.4,N
1501498436.0,286046926.4,N
1501498455.8,286046924.6,N
1501498475.7,286046927.3,N
1501498495.5,286046927.8,N
1501498515.3,286046929.3,N
1501498535.1,286046930.8,N
1501498555.9,286046924.5,N
1501498575.7,286046927.3,N
1501498595.5,286046924.6,N
1501498615.4,286046923.6,N
1501498635.2,286046919.7,N
1501498655.0,286046923.6,N
1501498655.9,286046923.6,N
1501498675.8,286046920.0,N
1501498695.6,286046923.8,N
1501498715.4,286046930.8,N
1501498735.3,286046932.0,N
1501498755.1,286046928.1,N
1501498756.0,286046928.1,N
1501498775.8,286046930.6,N
1501498795.6,286046932.1,N
